Hourly Weather Kozlovichi

Today, 22 October, Thursday

Time Temperature Precipitation Wind Pressure Humidity
00:00 +8°C° 0.2 mm 3 mps 741 mmHg 91%
01:00 +8°C° 0.2 mm 3 mps 741 mmHg 90%
02:00 +7°C° 0 mm 4 mps 741 mmHg 88%
03:00 +8°C° 0.1 mm 4 mps 741 mmHg 87%
04:00 +8°C° 0.1 mm 4 mps 741 mmHg 85%
05:00 +8°C° 0.1 mm 4 mps 740 mmHg 84%
06:00 +7°C° 0 mm 5 mps 740 mmHg 85%
07:00 +7°C° 0 mm 5 mps 740 mmHg 86%
08:00 +7°C° 0 mm 5 mps 740 mmHg 87%
09:00 +8°C° 0 mm 6 mps 740 mmHg 82%
10:00 +9°C° 0 mm 6 mps 740 mmHg 78%
11:00 +11°C° 0 mm 6 mps 740 mmHg 73%
12:00 +12°C° 0 mm 7 mps 740 mmHg 71%
13:00 +14°C° 0 mm 7 mps 740 mmHg 68%
14:00 +16°C° 0 mm 7 mps 740 mmHg 65%
15:00 +15°C° 0 mm 6 mps 740 mmHg 69%
16:00 +14°C° 0 mm 6 mps 740 mmHg 73%
17:00 +13°C° 0 mm 5 mps 740 mmHg 77%
18:00 +13°C° 0 mm 5 mps 740 mmHg 79%
19:00 +12°C° 0 mm 5 mps 741 mmHg 81%
20:00 +12°C° 0 mm 5 mps 741 mmHg 83%
21:00 +11°C° 0 mm 4 mps 741 mmHg 86%
22:00 +11°C° 0 mm 4 mps 741 mmHg 88%
23:00 +10°C° 0 mm 4 mps 741 mmHg 91%

Tomorrow, 23 October, Friday

Time Temperature Precipitation Wind Pressure Humidity
00:00 +10°C° 0 mm 4 mps 741 mmHg 92%
01:00 +10°C° 0 mm 3 mps 742 mmHg 93%
02:00 +10°C° 0 mm 3 mps 742 mmHg 94%
03:00 +10°C° 0 mm 3 mps 741 mmHg 94%
04:00 +10°C° 0 mm 3 mps 741 mmHg 94%
05:00 +10°C° 0 mm 3 mps 741 mmHg 94%
06:00 +10°C° 0 mm 4 mps 740 mmHg 92%
07:00 +10°C° 0 mm 4 mps 740 mmHg 91%
08:00 +10°C° 0 mm 4 mps 740 mmHg 90%
09:00 +10°C° 0 mm 5 mps 740 mmHg 86%
10:00 +12°C° 0 mm 5 mps 739 mmHg 82%
11:00 +13°C° 0 mm 5 mps 739 mmHg 78%
12:00 +13°C° 0.2 mm 5 mps 739 mmHg 79%
13:00 +13°C° 0.2 mm 5 mps 739 mmHg 79%
14:00 +14°C° 0.2 mm 5 mps 739 mmHg 79%
15:00 +13°C° 0 mm 4 mps 739 mmHg 82%
16:00 +13°C° 0 mm 4 mps 739 mmHg 85%
17:00 +13°C° 0 mm 3 mps 739 mmHg 87%
18:00 +12°C° 0 mm 3 mps 739 mmHg 89%
19:00 +12°C° 0 mm 3 mps 739 mmHg 91%
20:00 +11°C° 0 mm 3 mps 739 mmHg 93%
21:00 +11°C° 0 mm 3 mps 739 mmHg 93%
22:00 +10°C° 0 mm 2 mps 739 mmHg 94%
23:00 +10°C° 0 mm 2 mps 740 mmHg 94%

Day after tomorrow, 24 October, Saturday

Time Temperature Precipitation Wind Pressure Humidity
00:00 +11°C° 0 mm 1 mps 740 mmHg 94%
01:00 +10°C° 0 mm 1 mps 740 mmHg 94%
02:00 +10°C° 0 mm 1 mps 740 mmHg 93%
03:00 +10°C° 0 mm 1 mps 740 mmHg 93%
04:00 +10°C° 0 mm 1 mps 739 mmHg 93%
05:00 +9°C° 0 mm 0 mps 739 mmHg 93%
06:00 +10°C° 0 mm 1 mps 739 mmHg 93%
07:00 +10°C° 0 mm 1 mps 739 mmHg 93%
08:00 +11°C° 0 mm 1 mps 739 mmHg 93%
09:00 +11°C° 0.6 mm 1 mps 739 mmHg 94%
10:00 +11°C° 0.6 mm 1 mps 739 mmHg 95%
11:00 +11°C° 0.6 mm 1 mps 739 mmHg 97%
12:00 +11°C° 1.2 mm 1 mps 739 mmHg 97%
13:00 +11°C° 1.2 mm 1 mps 739 mmHg 97%
14:00 +11°C° 1.2 mm 1 mps 739 mmHg 98%
15:00 +11°C° 1.2 mm 1 mps 739 mmHg 97%
16:00 +11°C° 1.2 mm 1 mps 739 mmHg 96%
17:00 +10°C° 1.2 mm 2 mps 739 mmHg 96%
18:00 +9°C° 0 mm 2 mps 739 mmHg 96%
19:00 +9°C° 0 mm 2 mps 739 mmHg 95%
20:00 +8°C° 0 mm 2 mps 740 mmHg 95%
21:00 +8°C° 0 mm 2 mps 740 mmHg 95%
22:00 +8°C° 0 mm 3 mps 741 mmHg 95%
23:00 +8°C° 0 mm 3 mps 741 mmHg 96%

, 25 October, Sunday

Time Temperature Precipitation Wind Pressure Humidity
00:00 +8°C° 0 mm 3 mps 741 mmHg 96%
01:00 +8°C° 0 mm 3 mps 741 mmHg 96%
02:00 +8°C° 0 mm 3 mps 742 mmHg 96%
03:00 +7°C° 0 mm 3 mps 742 mmHg 96%
04:00 +7°C° 0 mm 3 mps 743 mmHg 96%
05:00 +7°C° 0 mm 2 mps 743 mmHg 96%
06:00 +7°C° 0 mm 2 mps 743 mmHg 96%
07:00 +7°C° 0 mm 2 mps 743 mmHg 96%
08:00 +7°C° 0 mm 2 mps 744 mmHg 95%
09:00 +8°C° 0 mm 2 mps 744 mmHg 90%
10:00 +9°C° 0 mm 2 mps 744 mmHg 85%
11:00 +10°C° 0 mm 2 mps 745 mmHg 79%
12:00 +12°C° 0 mm 2 mps 745 mmHg 76%
13:00 +13°C° 0 mm 2 mps 745 mmHg 73%
14:00 +13°C° 0 mm 2 mps 745 mmHg 70%
15:00 +12°C° 0 mm 2 mps 745 mmHg 74%
16:00 +10°C° 0 mm 2 mps 745 mmHg 79%
17:00 +10°C° 0 mm 1 mps 745 mmHg 83%
18:00 +9°C° 0 mm 2 mps 745 mmHg 85%
19:00 +8°C° 0 mm 2 mps 745 mmHg 86%
20:00 +8°C° 0 mm 2 mps 745 mmHg 87%
21:00 +7°C° 0 mm 2 mps 746 mmHg 89%
22:00 +7°C° 0 mm 2 mps 746 mmHg 91%
23:00 +7°C° 0 mm 2 mps 746 mmHg 92%

25 October, Sunday

Time Temperature Precipitation Wind Pressure Humidity
00:00 +8°C° 0 mm 3 mps 741 mmHg 96%
01:00 +8°C° 0 mm 3 mps 741 mmHg 96%
02:00 +8°C° 0 mm 3 mps 742 mmHg 96%
03:00 +7°C° 0 mm 3 mps 742 mmHg 96%
04:00 +7°C° 0 mm 3 mps 743 mmHg 96%
05:00 +7°C° 0 mm 2 mps 743 mmHg 96%
06:00 +7°C° 0 mm 2 mps 743 mmHg 96%
07:00 +7°C° 0 mm 2 mps 743 mmHg 96%
08:00 +7°C° 0 mm 2 mps 744 mmHg 95%
09:00 +8°C° 0 mm 2 mps 744 mmHg 90%
10:00 +9°C° 0 mm 2 mps 744 mmHg 85%
11:00 +10°C° 0 mm 2 mps 745 mmHg 79%
12:00 +12°C° 0 mm 2 mps 745 mmHg 76%
13:00 +13°C° 0 mm 2 mps 745 mmHg 73%
14:00 +13°C° 0 mm 2 mps 745 mmHg 70%
15:00 +12°C° 0 mm 2 mps 745 mmHg 74%
16:00 +10°C° 0 mm 2 mps 745 mmHg 79%
17:00 +10°C° 0 mm 1 mps 745 mmHg 83%
18:00 +9°C° 0 mm 2 mps 745 mmHg 85%
19:00 +8°C° 0 mm 2 mps 745 mmHg 86%
20:00 +8°C° 0 mm 2 mps 745 mmHg 87%
21:00 +7°C° 0 mm 2 mps 746 mmHg 89%
22:00 +7°C° 0 mm 2 mps 746 mmHg 91%
23:00 +7°C° 0 mm 2 mps 746 mmHg 92%

26 October, Monday

Time Temperature Precipitation Wind Pressure Humidity
00:00 +6°C° 0 mm 2 mps 746 mmHg 93%
01:00 +6°C° 0 mm 2 mps 746 mmHg 94%
02:00 +5°C° 0 mm 3 mps 746 mmHg 95%
03:00 +5°C° 0 mm 3 mps 746 mmHg 95%
04:00 +5°C° 0 mm 3 mps 746 mmHg 95%
05:00 +4°C° 0 mm 3 mps 746 mmHg 96%
06:00 +4°C° 0 mm 3 mps 746 mmHg 96%
07:00 +5°C° 0 mm 4 mps 746 mmHg 96%
08:00 +5°C° 0 mm 4 mps 746 mmHg 96%
09:00 +6°C° 0 mm 4 mps 745 mmHg 92%
10:00 +7°C° 0 mm 5 mps 745 mmHg 88%
11:00 +9°C° 0 mm 5 mps 745 mmHg 84%
12:00 +9°C° 0 mm 5 mps 745 mmHg 82%
13:00 +10°C° 0 mm 5 mps 745 mmHg 80%
14:00 +10°C° 0 mm 6 mps 744 mmHg 78%
15:00 +10°C° 0 mm 5 mps 744 mmHg 81%
16:00 +9°C° 0 mm 5 mps 744 mmHg 83%
17:00 +9°C° 0 mm 5 mps 743 mmHg 85%
18:00 +8°C° 0 mm 5 mps 743 mmHg 86%
19:00 +8°C° 0 mm 5 mps 743 mmHg 86%
20:00 +8°C° 0 mm 5 mps 743 mmHg 87%
21:00 +8°C° 0 mm 6 mps 743 mmHg 87%
22:00 +8°C° 0 mm 6 mps 743 mmHg 86%
23:00 +9°C° 0 mm 6 mps 743 mmHg 86%

27 October, Tuesday

Time Temperature Precipitation Wind Pressure Humidity
00:00 +9°C° 0 mm 6 mps 743 mmHg 88%
01:00 +9°C° 0 mm 6 mps 742 mmHg 90%
02:00 +8°C° 0 mm 6 mps 742 mmHg 93%
03:00 +9°C° 0.1 mm 6 mps 742 mmHg 92%
04:00 +9°C° 0.1 mm 6 mps 742 mmHg 92%
05:00 +9°C° 0.1 mm 6 mps 742 mmHg 92%
06:00 +9°C° 0 mm 6 mps 742 mmHg 91%
07:00 +10°C° 0 mm 6 mps 742 mmHg 90%
08:00 +10°C° 0 mm 6 mps 742 mmHg 90%
09:00 +10°C° 0 mm 6 mps 742 mmHg 87%
10:00 +11°C° 0 mm 6 mps 742 mmHg 84%
11:00 +13°C° 0 mm 5 mps 742 mmHg 82%
12:00 +13°C° 0 mm 5 mps 742 mmHg 81%
13:00 +13°C° 0 mm 5 mps 742 mmHg 80%
14:00 +14°C° 0 mm 5 mps 742 mmHg 79%
15:00 +13°C° 0 mm 5 mps 742 mmHg 82%
16:00 +13°C° 0 mm 4 mps 742 mmHg 86%
17:00 +12°C° 0 mm 4 mps 742 mmHg 90%
18:00 +12°C° 0 mm 4 mps 742 mmHg 91%
19:00 +11°C° 0 mm 4 mps 742 mmHg 92%
20:00 +11°C° 0 mm 4 mps 743 mmHg 93%
21:00 +11°C° 0 mm 4 mps 743 mmHg 94%
22:00 +11°C° 0 mm 3 mps 743 mmHg 94%
23:00 +10°C° 0 mm 3 mps 743 mmHg 95%
Show more